DELTA 1 DEB, 10227

Orbit data source: Space-Track

DELTA 1 DEB, 10227 is space debris in LEO originally from a launch on Thu, 14 Jul 1977 UTC launched from the Air Force Eastern Test Range (AFETR). Debris objects in space refer to the collection of defunct objects orbiting the Earth. Examples of debris include non-operational satellites, rocket bodies, and fragments generated from explosions, collisions, or faulty payload assembly.

Loading next visibility...
Identifier
10227, 1977-065BE
Orbit
LEO
Country
Flag of USUS
Related business
Manufacturer
Unknown
Mission
Spacecraft
Bus & Motor
Unknown
Mass
Unknown
Launch date (UTC)
1977-07-14 (48 years ago)
Launch vehicle
Unknown
Launch site
Air Force Eastern Test Range (AFETR)
Object type
Payload
Rocket body
Debris
Shape & HBR
Unknown shape, 0.6 m
Radar Cross Section
Medium (>0.1 m² and <1 m²)

Expand to show TLE details & history
Last TLE update: 2 days ago

TLE from 2 days ago
0 DELTA 1 DEB
1 10227U 77065BE  25305.62228600  .00003695  00000-0  12219-2 0  9998
2 10227  28.9506  53.1775 0676621 152.5750 211.2251 13.52075294343849
Epoch: 2025-11-01T14:56Z
TLE epoch observation values (Epoch: 2025-11-01T14:56:05.510Z)
Latitude
0.00001°
Longitude
148.00483°
Altitude
1,502.005 km
Speed
6.903 km/s
True Right ascension
03h 32m 42s
True Declination
0° 00' 00"
Sunlit
Object was in full shadow at epoch
Visualization orbit readout
Latitude
Unknown
Longitude
Unknown
Altitude
Unknown
Speed
Unknown
Apparent Right ascension
Unknown
Apparent Declination
Unknown
Sunlit
N/A
Visualization observer readout
Local Sidereal Time
23:51:35
Azimuth
Unknown
Elevation
Unknown
Doppler factor
Unknown
Orbital elements
Apogee altitude
1,572.358 km
Perigee altitude
564.648 km
Semi-major axis
7,446.64 km
Eccentricity
0.06766
Inclination
28.9506°
RAAN
53.1775°
Arg. of periapsis
152.575°
True anomaly
207.48007°
Mean anomaly
211.2251°
Eccentric anomaly
209.32633°
Mean motion
3.37756 °/min
Orbital period
106.59 mins
BSTAR
0.0012219
Loading maneuver chart data...
Computing Atmospheric mass density...
Loading historical data...
Loading historical data...
Loading historical data...
Loading historical data...
Loading historical data...
Loading historical data...
Loading historical data...

Documentation

Showing up to 5 results
|